R/V Atlantis Calliope CSV data file  (Time stamps are GMT)
Date, Time_GMT, Dec_Lat, Dec_Lon, Depth12, Depth35, GPS_COG, GPS_SOG, Gyro, Air_Temp, IMET_BPR, IMET_SWR, HRH, PhinsHd, SBE45C, SBE45S, SBE45T, Salinity, SSTMP, SSV, SSCND, SST_FSI, SST_SBE48, Wnd_Dir, Wnd_Spd, HdChkSum=1B
2009/03/15, 00:00:04, 1.499950, -102.678400, , , 269.0, 10.10, 274.2, 25.490, 1006.95, 216.2, 79.271, 273.5, , , , 34.5229, 25.9391, 1536.1141, 53.3925, 25.7840, 25.9391, 38.3, 4.1949, 1B
2009/03/15, 00:01:02, 1.499933, -102.680717, , , 266.0, 10.00, 274.8, 25.482, 1007.04, 214.6, 79.355, 273.9, , , , 34.5399, 25.9373, 1536.1281, 53.4140, 25.7978, 25.9373, 40.1, 4.1588, 1B
2009/03/15, 00:02:02, 1.499933, -102.683517, , , 274.0, 10.30, 273.7, 25.490, 1007.03, 207.0, 79.409, 273.4, , , , 34.5380, 25.9339, 1536.1181, 53.4079, 25.7910, 25.9339, 52.7, 3.9869, 1B
2009/03/15, 00:03:02, 1.499933, -102.686333, , , 272.0, 10.10, 275.0, 25.497, 1007.15, 206.5, 79.593, 273.6, , , , 34.5207, 25.9284, 1536.0866, 53.3784, 25.7658, 25.9284, 50.5, 3.8134, 1B
2009/03/15, 00:04:01, 1.499917, -102.689167, , , 270.0, 10.20, 275.0, 25.482, 1006.90, 204.3, 79.363, 274.5, , , , 34.5442, 25.9247, 1536.1050, 53.4077, 25.7907, 25.9247, 54.5, 3.7375, 1B
2009/03/15, 00:05:02, 1.499917, -102.691967, , , 266.0, 10.00, 274.8, 25.505, 1006.84, 198.8, 79.608, 274.7, , , , 34.5305, 25.9195, 1536.0762, 53.3826, 25.7768, 25.9195, 46.5, 4.0038, 1B
2009/03/15, 00:06:01, 1.499933, -102.694750, , , 267.0, 10.00, 274.6, 25.490, 1007.05, 199.7, 79.363, 274.4, , , , 34.5232, 25.9155, 1536.0588, 53.3683, 25.7527, 25.9155, 38.8, 4.0335, 1B
2009/03/15, 00:07:02, 1.499950, -102.697517, , , 273.0, 10.10, 274.1, 25.490, 1007.07, 190.3, 79.278, 274.2, , , , 34.5256, 25.9085, 1536.0451, 53.3645, 25.7424, 25.9085, 47.9, 3.6740, 1B
2009/03/15, 00:08:02, 1.499933, -102.700300, , , 274.0, 10.00, 273.6, 25.474, 1007.04, 186.2, 79.194, 274.2, , , , 34.5209, 25.9008, 1536.0220, 53.3500, 25.7348, 25.9008, 54.8, 3.6452, 1B
2009/03/15, 00:09:02, 1.499933, -102.703083, , , 271.0, 9.90, 274.8, 25.513, 1006.88, 186.3, 79.907, 273.4, , , , 34.5139, 25.8937, 1535.9978, 53.3331, 25.7174, 25.8937, 52.1, 3.7848, 1B
2009/03/15, 00:10:01, 1.499933, -102.705867, , , 267.0, 10.00, 273.8, 25.513, 1007.06, 177.8, 79.907, 272.9, , , , 34.5306, 25.8867, 1536.0001, 53.3492, 25.7356, 25.8867, 43.7, 4.3747, 1B
2009/03/15, 00:11:01, 1.499950, -102.708650, , , 269.0, 10.20, 274.0, 25.521, 1007.49, 179.7, 80.067, 273.4, , , , 34.5180, 25.8826, 1535.9775, 53.3278, 25.7234, 25.8826, 47.1, 4.2190, 1B
2009/03/15, 00:12:01, 1.499950, -102.711433, , , 274.0, 9.90, 274.5, 25.505, 1007.28, 176.5, 79.899, 273.8, , , , 34.5235, 25.8793, 1535.9744, 53.3315, 25.7234, 25.8793, 49.0, 3.7459, 1B
2009/03/15, 00:13:01, 1.499933, -102.714200, , , 277.0, 10.10, 273.7, 25.521, 1007.07, 170.8, 80.175, 273.1, , , , 34.5294, 25.8783, 1535.9763, 53.3376, 25.7391, 25.8783, 46.6, 3.9834, 1B
2009/03/15, 00:14:01, 1.499933, -102.716983, , , 272.0, 10.10, 274.0, 25.482, 1007.15, 161.2, 79.707, 273.1, , , , 34.5598, 25.8826, 1536.0208, 53.3846, 25.7794, 25.8826, 44.1, 4.1497, 1B
2009/03/15, 00:15:01, 1.499917, -102.719767, , , 274.0, 10.00, 274.3, 25.490, 1007.01, 155.3, 79.700, 274.1, , , , 34.5548, 25.8886, 1536.0282, 53.3834, 25.7768, 25.8886, 48.6, 4.1029, 1B
2009/03/15, 00:16:01, 1.499917, -102.722567, , , 274.0, 10.10, 275.0, 25.490, 1007.10, 152.2, 79.868, 275.1, , , , 34.5444, 25.8902, 1536.0191, 53.3700, 25.7586, 25.8902, 56.2, 3.5886, 1B
2009/03/15, 00:17:02, 1.499950, -102.725367, , , 272.0, 10.00, 274.9, 25.505, 1006.96, 145.4, 79.960, 274.1, , , , 34.5398, 25.8878, 1536.0116, 53.3625, 25.7603, 25.8878, 51.6, 3.4553, 1B
2009/03/15, 00:18:02, 1.499967, -102.728117, , , 269.0, 9.90, 273.9, 25.497, 1006.99, 139.2, 79.930, 273.8, , , , 34.5215, 25.8836, 1535.9822, 53.3330, 25.7299, 25.8836, 39.2, 3.8134, 1B
2009/03/15, 00:19:02, 1.499967, -102.730883, , , 271.0, 9.90, 273.6, 25.474, 1006.95, 135.0, 79.822, 272.9, , , , 34.5432, 25.8803, 1535.9976, 53.3594, 25.7502, 25.8803, 43.6, 3.7752, 1B
2009/03/15, 00:20:02, 1.499933, -102.733633, , , 268.0, 9.70, 274.2, 25.505, 1007.35, 130.0, 80.159, 273.6, , , , 34.5492, 25.8767, 1535.9956, 53.3640, 25.7566, 25.8767, 46.6, 3.9275, 1B
2009/03/15, 00:21:01, 1.499900, -102.736317, , , 269.0, 9.40, 274.2, 25.497, 1007.04, 118.0, 80.366, 273.4, , , , 34.5135, 25.8779, 1535.9600, 53.3160, 25.7207, 25.8779, 44.7, 3.9198, 1B
2009/03/15, 00:22:02, 1.499900, -102.738883, , , 275.0, 9.20, 275.2, 25.482, 1007.25, 117.6, 80.619, 274.4, , , , 34.5512, 25.8791, 1536.0034, 53.3692, 25.7637, 25.8791, 50.7, 3.5084, 1B
2009/03/15, 00:23:02, 1.499900, -102.741350, , , 264.0, 8.90, 274.6, 25.451, 1007.24, 116.3, 80.091, 274.9, , , , 34.5566, 25.8804, 1536.0122, 53.3780, 25.7682, 25.8804, 39.0, 4.0751, 1B
2009/03/15, 00:24:02, 1.499933, -102.743783, , , 265.0, 8.70, 274.2, 25.443, 1007.13, 113.6, 79.570, 274.4, , , , 34.5786, 25.8861, 1536.0492, 53.4141, 25.8103, 25.8861, 41.8, 4.1231, 1B
2009/03/15, 00:25:01, 1.499917, -102.746100, , , 269.0, 8.30, 274.3, 25.443, 1007.34, 109.5, 79.570, 274.0, , , , 34.5376, 25.8921, 1536.0187, 53.3636, 25.7523, 25.8921, 43.8, 3.7462, 1B
2009/03/15, 00:26:01, 1.499900, -102.748333, , , 270.0, 8.00, 275.2, 25.443, 1007.04, 106.8, 79.623, 275.0, , , , 34.5515, 25.8968, 1536.0434, 53.3871, 25.7815, 25.8968, 47.2, 3.6024, 1B
2009/03/15, 00:27:01, 1.499900, -102.750550, , , 270.0, 7.80, 276.0, 25.443, 1007.16, 103.4, 79.324, 274.9, , , , 34.5407, 25.9003, 1536.0399, 53.3758, 25.7806, 25.9003, 47.4, 3.7849, 1B
2009/03/15, 00:28:02, 1.499917, -102.752733, , , 278.0, 7.90, 275.2, 25.413, 1007.36, 96.9, 79.370, 275.7, , , , 34.5577, 25.9032, 1536.0670, 53.4031, 25.8004, 25.9032, 53.6, 3.1824, 1B
2009/03/15, 00:29:02, 1.499900, -102.754900, , , 268.0, 8.10, 275.6, 25.428, 1007.56, 94.4, 79.355, 275.1, , , , 34.5407, 25.9091, 1536.0627, 53.3858, 25.7693, 25.9091, 49.5, 3.8073, 1B
2009/03/15, 00:30:02, 1.499917, -102.757100, , , 269.0, 7.90, 275.9, 25.443, 1007.13, 91.1, 79.355, 275.2, , , , 34.5629, 25.9107, 1536.0902, 53.4180, 25.8056, 25.9107, 54.5, 3.4741, 1B
2009/03/15, 00:31:01, 1.499933, -102.759317, , , 271.0, 8.00, 275.5, 25.459, 1007.52, 86.3, 79.784, 275.5, , , , 34.5192, 25.9075, 1536.0383, 53.3431, 25.7318, 25.9075, 56.9, 3.3878, 1B
2009/03/15, 00:32:02, 1.499950, -102.761500, , , 271.0, 7.70, 275.2, 25.451, 1007.38, 82.4, 79.853, 275.0, , , , 34.5373, 25.9037, 1536.0463, 53.3756, 25.7650, 25.9037, 50.3, 3.2608, 1B
2009/03/15, 00:33:02, 1.499933, -102.763650, , , 270.0, 7.60, 275.8, 25.459, 1007.34, 77.3, 80.022, 275.8, , , , 34.5490, 25.8972, 1536.0436, 53.3849, 25.7669, 25.8972, 46.2, 3.3281, 1B
2009/03/15, 00:34:01, 1.499917, -102.765800, , , 271.0, 7.70, 275.6, 25.459, 1007.58, 76.2, 80.022, 274.9, , , , 34.5422, 25.8931, 1536.0288, 53.3722, 25.7615, 25.8931, 43.9, 3.9159, 1B
2009/03/15, 00:35:01, 1.499933, -102.767967, , , 275.0, 7.90, 275.0, 25.443, 1007.45, 72.2, 79.761, 274.1, , , , 34.5433, 25.8936, 1536.0286, 53.3731, 25.7690, 25.8936, 53.6, 3.2183, 1B
2009/03/15, 00:36:02, 1.499933, -102.770150, , , 261.0, 8.10, 275.6, 25.436, 1007.40, 66.3, 80.075, 275.3, , , , 34.5219, 25.8930, 1536.0047, 53.3434, 25.7322, 25.8930, 44.4, 3.8640, 1B
2009/03/15, 00:37:02, 1.499917, -102.772333, , , 267.0, 7.90, 275.8, 25.405, 1007.50, 61.1, 79.278, 275.3, , , , 34.5419, 25.8926, 1536.0252, 53.3704, 25.7655, 25.8926, 43.8, 3.5692, 1B
2009/03/15, 00:38:01, 1.499900, -102.774533, , , 273.0, 7.80, 276.4, 25.420, 1007.65, 58.4, 79.248, 275.4, , , , 34.5654, 25.8933, 1536.0524, 53.4036, 25.7863, 25.8933, 50.6, 3.2228, 1B
2009/03/15, 00:39:02, 1.499900, -102.776750, , , 272.0, 8.20, 276.4, 25.420, 1007.47, 55.7, 79.447, 275.6, , , , 34.5908, 25.8951, 1536.0834, 53.4402, 25.8243, 25.8951, 52.3, 3.5143, 1B
2009/03/15, 00:40:02, 1.499917, -102.779000, , , 278.0, 8.20, 276.4, 25.420, 1007.50, 50.9, 79.524, 275.6, , , , 34.5951, 25.9001, 1536.0998, 53.4512, 25.8317, 25.9001, 51.9, 2.8826, 1B
2009/03/15, 00:41:02, 1.499917, -102.781233, , , 259.0, 8.40, 276.2, 25.413, 1007.52, 50.3, 79.654, 276.0, , , , 34.5992, 25.9091, 1536.1253, 53.4662, 25.8538, 25.9091, 38.5, 3.9383, 1B
2009/03/15, 00:42:01, 1.499900, -102.783467, , , 275.0, 7.90, 276.8, 25.413, 1007.42, 45.8, 79.654, 275.9, , , , 34.6015, 25.9149, 1536.1383, 53.4741, 25.8497, 25.9149, 50.0, 2.9106, 1B
2009/03/15, 00:43:02, 1.499917, -102.785700, , , 271.0, 8.10, 276.0, 25.420, 1007.56, 42.2, 80.067, 276.7, , , , 34.5751, 25.9174, 1536.1190, 53.4418, 25.8242, 25.9174, 51.0, 3.1687, 1B
2009/03/15, 00:44:02, 1.499933, -102.787967, , , 268.0, 8.20, 276.1, 25.390, 1007.54, 40.2, 79.593, 275.4, , , , 34.5844, 25.9181, 1536.1306, 53.4553, 25.8418, 25.9181, 47.2, 3.2174, 1B
2009/03/15, 00:45:01, 1.499933, -102.790267, , , 277.0, 8.20, 276.0, 25.390, 1007.41, 37.7, 79.593, 276.0, , , , 34.5805, 25.9158, 1536.1224, 53.4481, 25.8369, 25.9158, 54.0, 3.2340, 1B
2009/03/15, 00:46:01, 1.499967, -102.792583, , , 270.0, 8.40, 275.9, 25.397, 1007.63, 32.9, 79.524, 275.5, , , , 34.5734, 25.9152, 1536.1132, 53.4377, 25.8307, 25.9152, 47.1, 3.5909, 1B
2009/03/15, 00:47:02, 1.499967, -102.794850, , , 272.0, 7.90, 275.5, 25.366, 1007.69, 30.1, 79.493, 275.1, , , , 34.5552, 25.9105, 1536.0815, 53.4073, 25.7970, 25.9105, 47.2, 3.3170, 1B
2009/03/15, 00:48:02, 1.499933, -102.797017, , , 273.0, 7.80, 274.9, 25.382, 1007.83, 28.0, 79.524, 274.7, , , , 34.5734, 25.9054, 1536.0890, 53.4269, 25.8134, 25.9054, 52.1, 3.2304, 1B
2009/03/15, 00:49:02, 1.499917, -102.799167, , , 270.0, 7.80, 275.5, 25.366, 1007.78, 24.8, 79.378, 275.4, , , , 34.5627, 25.9033, 1536.0726, 53.4101, 25.8073, 25.9033, 49.3, 3.6755, 1B
2009/03/15, 00:50:01, 1.499900, -102.801333, , , 274.0, 7.70, 276.3, 25.382, 1007.65, 21.5, 79.554, 275.0, , , , 34.5864, 25.9013, 1536.0935, 53.4407, 25.8191, 25.9013, 57.3, 3.5470, 1B
2009/03/15, 00:51:02, 1.499917, -102.803533, , , 269.0, 8.10, 276.3, 25.382, 1007.48, 19.0, 80.182, 275.7, , , , 34.5924, 25.9032, 1536.1041, 53.4507, 25.8382, 25.9032, 52.6, 3.6579, 1B
2009/03/15, 00:52:02, 1.499933, -102.805817, , , 271.0, 8.20, 276.0, 25.366, 1007.76, 17.7, 80.213, 275.4, , , , 34.5774, 25.9057, 1536.0940, 53.4327, 25.8221, 25.9057, 50.8, 3.2933, 1B
2009/03/15, 00:53:02, 1.499950, -102.808150, , , 275.0, 8.30, 275.2, 25.359, 1007.50, 15.0, 80.343, 274.6, , , , 34.5971, 25.9075, 1536.1193, 53.4617, 25.8426, 25.9075, 53.2, 3.1632, 1B
2009/03/15, 00:54:02, 1.499950, -102.810467, , , 270.0, 8.40, 275.2, 25.343, 1007.60, 13.5, 80.366, 274.6, , , , 34.5870, 25.9084, 1536.1106, 53.4488, 25.8275, 25.9084, 48.5, 3.5475, 1B
2009/03/15, 00:55:02, 1.499967, -102.812783, , , 272.0, 8.60, 275.3, 25.336, 1007.53, 11.4, 80.481, 274.9, , , , 34.5421, 25.9077, 1536.0609, 53.3864, 25.7840, 25.9077, 52.1, 3.8638, 1B
2009/03/15, 00:56:01, 1.499967, -102.815100, , , 260.0, 8.60, 274.2, 25.336, 1007.54, 10.1, 80.481, 273.8, , , , 34.5758, 25.9058, 1536.0930, 53.4308, 25.8136, 25.9058, 47.0, 3.8483, 1B
2009/03/15, 00:57:01, 1.499967, -102.817400, , , 269.0, 8.20, 274.9, 25.351, 1007.38, 8.5, 80.772, 274.3, , , , 34.5731, 25.9045, 1536.0863, 53.4264, 25.8159, 25.9045, 40.0, 4.1924, 1B
2009/03/15, 00:58:01, 1.499950, -102.819717, , , 270.0, 8.30, 274.7, 25.289, 1007.58, 7.6, 80.451, 273.6, , , , 34.5229, 25.9009, 1536.0276, 53.3544, 25.7513, 25.9009, 40.6, 4.1205, 1B
2009/03/15, 00:59:01, 1.499917, -102.822033, , , 264.0, 8.20, 275.4, 25.320, 1007.45, 6.0, 80.642, 274.4, , , , 34.5447, 25.8951, 1536.0359, 53.3776, 25.7679, 25.8951, 44.9, 3.9414, 1B
2009/03/15, 01:00:02, 1.499900, -102.824333, , , 273.0, 8.20, 275.6, 25.297, 1007.59, 4.8, 80.757, 275.3, , , , 34.5350, 25.8854, 1536.0009, 53.3534, 25.7484, 25.8854, 43.6, 3.5145, 1B
2009/03/15, 01:01:02, 1.499900, -102.826633, , , 268.0, 8.40, 275.4, 25.274, 1007.63, 3.9, 80.711, 275.4, , , , 34.5431, 25.8757, 1535.9867, 53.3545, 25.7406, 25.8757, 41.1, 3.9358, 1B
2009/03/15, 01:02:01, 1.499917, -102.828933, , , 266.0, 8.30, 276.2, 25.266, 1007.46, 3.1, 80.680, 275.5, , , , 34.5566, 25.8692, 1535.9870, 53.3668, 25.7504, 25.8692, 44.0, 3.8156, 1B
2009/03/15, 01:03:02, 1.499917, -102.831233, , , 271.0, 8.10, 275.2, 25.274, 1007.48, 2.5, 80.903, 275.2, , , , 34.5702, 25.8629, 1535.9856, 53.3785, 25.7695, 25.8629, 48.2, 3.7640, 1B
2009/03/15, 01:04:02, 1.499900, -102.833533, , , 265.0, 8.40, 275.8, 25.251, 1007.65, 2.1, 80.696, 276.2, , , , 34.5509, 25.8572, 1535.9515, 53.3461, 25.7409, 25.8572, 47.8, 4.3727, 1B
2009/03/15, 01:05:02, 1.499933, -102.835833, , , 276.0, 8.20, 276.7, 25.243, 1007.37, 1.6, 80.382, 275.2, , , , 34.5603, 25.8478, 1535.9395, 53.3492, 25.7332, 25.8478, 54.2, 3.7935, 1B
2009/03/15, 01:06:02, 1.499933, -102.838150, , , 267.0, 8.20, 275.6, 25.243, 1007.59, 1.1, 80.535, 275.6, , , , 34.5393, 25.8426, 1535.9047, 53.3150, 25.7231, 25.8426, 52.0, 4.0768, 1B
2009/03/15, 01:07:02, 1.499933, -102.840450, , , 265.0, 8.40, 276.2, 25.243, 1007.45, 0.9, 80.588, 275.9, , , , 34.5656, 25.8358, 1535.9169, 53.3440, 25.7296, 25.8358, 48.5, 4.0531, 1B
2009/03/15, 01:08:02, 1.499950, -102.842733, , , 269.0, 8.40, 275.6, 25.236, 1007.49, 0.5, 80.742, 274.8, , , , 34.5707, 25.8309, 1535.9108, 53.3459, 25.7327, 25.8309, 44.8, 3.7884, 1B
2009/03/15, 01:09:02, 1.499933, -102.845033, , , 271.0, 8.50, 276.0, 25.243, 1007.57, 0.2, 80.826, 274.1, , , , 34.5597, 25.8291, 1535.8948, 53.3290, 25.7281, 25.8291, 47.3, 3.7977, 1B
2009/03/15, 01:10:02, 1.499933, -102.847333, , , 274.0, 8.20, 275.2, 25.228, 1007.45, 0.1, 80.834, 275.2, , , , 34.5714, 25.8271, 1535.9026, 53.3430, 25.7327, 25.8271, 47.9, 3.3577, 1B
2009/03/15, 01:11:01, 1.499917, -102.849633, , , 268.0, 8.40, 276.5, 25.228, 1007.66, 0.0, 80.925, 275.8, , , , 34.5469, 25.8233, 1535.8700, 53.3066, 25.6996, 25.8233, 47.1, 3.4424, 1B
2009/03/15, 01:12:02, 1.499933, -102.851917, , , 270.0, 8.40, 275.9, 25.220, 1007.70, -0.3, 80.872, 275.3, , , , 34.5609, 25.8193, 1535.8730, 53.3204, 25.7136, 25.8193, 52.8, 3.6521, 1B
2009/03/15, 01:13:01, 1.499917, -102.854200, , , 265.0, 8.20, 276.2, 25.220, 1007.42, -0.3, 80.872, 275.7, , , , 34.5450, 25.8118, 1535.8435, 53.2931, 25.6936, 25.8118, 55.8, 3.5263, 1B
2009/03/15, 01:14:01, 1.499917, -102.856483, , , 265.0, 8.40, 276.1, 25.228, 1007.64, -0.7, 81.155, 275.9, , , , 34.5600, 25.8076, 1535.8459, 53.3077, 25.7046, 25.8076, 57.2, 3.3538, 1B
2009/03/15, 01:15:02, 1.499917, -102.858783, , , 260.0, 8.40, 276.5, 25.220, 1007.53, -0.7, 81.446, 275.0, , , , 34.5634, 25.8049, 1535.8417, 53.3090, 25.7068, 25.8049, 38.4, 4.3210, 1B
2009/03/15, 01:16:02, 1.499933, -102.861100, , , 276.0, 8.30, 276.3, 25.205, 1007.62, -0.7, 81.033, 275.6, , , , 34.5672, 25.8002, 1535.8347, 53.3093, 25.7016, 25.8002, 54.9, 3.4236, 1B
2009/03/15, 01:17:01, 1.499917, -102.863433, , , 272.0, 8.40, 275.7, 25.197, 1007.64, -0.8, 80.925, 275.7, , , , 34.5733, 25.7957, 1535.8323, 53.3137, 25.7066, 25.7957, 51.0, 3.4681, 1B
2009/03/15, 01:18:02, 1.499933, -102.865750, , , 267.0, 8.50, 275.3, 25.182, 1007.64, -0.7, 80.772, 275.6, , , , 34.5816, 25.7921, 1535.8310, 53.3206, 25.7121, 25.7921, 48.5, 3.7754, 1B
2009/03/15, 01:19:01, 1.499917, -102.868067, , , 262.0, 8.50, 276.5, 25.197, 1007.54, -0.7, 81.132, 276.1, , , , 34.5676, 25.7878, 1535.8059, 53.2970, 25.6882, 25.7878, 51.3, 3.7638, 1B
2009/03/15, 01:20:01, 1.499917, -102.870367, , , 269.0, 8.40, 276.4, 25.189, 1007.75, -0.7, 80.834, 275.7, , , , 34.5633, 25.7777, 1535.7793, 53.2806, 25.6770, 25.7777, 56.0, 3.6209, 1B
2009/03/15, 01:21:01, 1.499917, -102.872683, , , 276.0, 8.20, 276.1, 25.189, 1007.63, -0.7, 81.071, 276.3, , , , 34.5707, 25.7693, 1535.7656, 53.2820, 25.6837, 25.7693, 61.4, 3.3678, 1B
2009/03/15, 01:22:02, 1.499917, -102.874983, , , 269.0, 8.20, 276.3, 25.166, 1007.59, -0.8, 81.025, 275.4, , , , 34.5732, 25.7645, 1535.7569, 53.2805, 25.6808, 25.7645, 53.9, 3.5233, 1B
2009/03/15, 01:23:02, 1.499933, -102.877250, , , 275.0, 8.20, 276.5, 25.174, 1007.75, -0.7, 81.048, 276.0, , , , 34.5832, 25.7588, 1535.7542, 53.2883, 25.6806, 25.7588, 63.8, 3.2035, 1B
2009/03/15, 01:24:02, 1.499950, -102.879517, , , 274.0, 7.80, 276.2, 25.174, 1007.60, -0.7, 81.132, 276.0, , , , 34.5762, 25.7527, 1535.7323, 53.2723, 25.6653, 25.7527, 57.8, 3.1925, 1B
2009/03/15, 01:25:01, 1.499950, -102.881750, , , 272.0, 8.10, 275.8, 25.174, 1007.66, -0.7, 81.132, 275.0, , , , 34.5809, 25.7491, 1535.7298, 53.2755, 25.6656, 25.7491, 58.5, 3.6147, 1B
2009/03/15, 01:26:01, 1.499933, -102.883983, , , 278.0, 8.10, 276.1, 25.189, 1007.74, -0.7, 81.247, 275.4, , , , 34.5682, 25.7458, 1535.7086, 53.2548, 25.6550, 25.7458, 63.6, 2.8953, 1B
2009/03/15, 01:27:02, 1.499917, -102.886233, , , 266.0, 8.20, 276.7, 25.182, 1007.92, -0.7, 81.194, 275.9, , , , 34.5897, 25.7443, 1535.7269, 53.2821, 25.6744, 25.7443, 51.2, 3.7469, 1B
2009/03/15, 01:28:02, 1.499933, -102.888467, , , 271.0, 8.00, 276.8, 25.174, 1007.53, -0.7, 81.408, 276.3, , , , 34.5841, 25.7443, 1535.7209, 53.2744, 25.6727, 25.7443, 55.5, 3.3881, 1B
2009/03/15, 01:29:02, 1.499950, -102.890700, , , 261.0, 8.30, 275.8, 25.189, 1007.65, -0.7, 81.286, 276.1, , , , 34.5978, 25.7509, 1535.7512, 53.3001, 25.6944, 25.7509, 49.7, 3.6756, 1B
2009/03/15, 01:30:02, 1.499950, -102.892950, , , 271.0, 8.10, 276.1, 25.205, 1007.81, -0.7, 81.607, 275.6, , , , 34.6066, 25.7584, 1535.7783, 53.3199, 25.7133, 25.7584, 55.3, 3.1713, 1B
2009/03/15, 01:31:01, 1.499950, -102.895200, , , 271.0, 8.30, 275.6, 25.205, 1007.70, -0.7, 81.952, 275.3, , , , 34.5943, 25.7675, 1535.7847, 53.3117, 25.7069, 25.7675, 61.1, 3.2440, 1B
2009/03/15, 01:32:01, 1.499933, -102.897450, , , 267.0, 8.10, 276.3, 25.166, 1007.93, -0.7, 81.362, 275.2, , , , 34.5567, 25.7727, 1535.7579, 53.2660, 25.6696, 25.7727, 54.9, 3.3738, 1B
2009/03/15, 01:33:02, 1.499933, -102.899717, , , 270.0, 8.10, 275.8, 25.166, 1007.88, -0.5, 81.278, 275.9, , , , 34.5782, 25.7718, 1535.7795, 53.2949, 25.6968, 25.7718, 53.1, 3.6441, 1B
2009/03/15, 01:34:01, 1.499933, -102.902000, , , 274.0, 8.20, 276.4, 25.174, 1008.08, -0.4, 81.377, 275.1, , , , 34.5625, 25.7661, 1535.7518, 53.2686, 25.6692, 25.7661, 54.6, 3.5214, 1B
2009/03/15, 01:35:02, 1.499933, -102.904283, , , 265.0, 8.50, 275.9, 25.174, 1007.74, -0.3, 81.646, 276.1, , , , 34.5694, 25.7588, 1535.7394, 53.2693, 25.6683, 25.7588, 53.7, 3.9073, 1B
2009/03/15, 01:36:02, 1.499933, -102.906567, , , 270.0, 8.20, 276.0, 25.158, 1007.69, -0.3, 81.301, 275.7, , , , 34.5703, 25.7499, 1535.7194, 53.2614, 25.6602, 25.7499, 51.2, 3.3476, 1B
2009/03/15, 01:37:01, 1.499933, -102.908850, , , 267.0, 8.10, 276.4, 25.158, 1007.86, -0.3, 81.301, 276.1, , , , 34.5619, 25.7432, 1535.6962, 53.2436, 25.6460, 25.7432, 54.5, 3.4085, 1B
2009/03/15, 01:38:01, 1.499933, -102.911150, , , 275.0, 8.30, 276.4, 25.158, 1007.97, -0.3, 81.109, 276.1, , , , 34.6003, 25.7402, 1535.7305, 53.2932, 25.6874, 25.7402, 66.6, 3.1115, 1B
2009/03/15, 01:39:01, 1.499950, -102.913450, , , 272.0, 8.30, 276.4, 25.151, 1007.87, -0.3, 81.117, 275.2, , , , 34.5995, 25.7423, 1535.7353, 53.2946, 25.6895, 25.7423, 62.2, 3.1123, 1B
2009/03/15, 01:40:01, 1.499933, -102.915733, , , 268.0, 8.40, 276.6, 25.158, 1007.88, -0.3, 81.615, 276.5, , , , 34.5968, 25.7471, 1535.7404, 53.3052, 25.6959, 25.7471, 61.6, 3.1968, 1B
2009/03/15, 01:41:01, 1.499933, -102.918000, , , 273.0, 8.10, 276.0, 25.143, 1008.00, -0.3, 81.155, 275.5, , , , 34.6042, 25.7537, 1535.7647, 53.3117, 25.7126, 25.7537, 62.9, 3.3446, 1B
2009/03/15, 01:42:01, 1.499950, -102.920283, , , 272.0, 8.10, 276.3, 25.143, 1008.00, -0.3, 81.155, 275.1, , , , 34.5832, 25.7600, 1535.7551, 53.2887, 25.6846, 25.7600, 59.5, 3.5950, 1B
2009/03/15, 01:43:01, 1.499950, -102.922567, , , 272.0, 8.20, 275.9, 25.135, 1008.03, -0.3, 81.286, 275.9, , , , 34.5871, 25.7663, 1535.7716, 53.2994, 25.6976, 25.7663, 64.0, 3.2174, 1B
2009/03/15, 01:44:02, 1.499950, -102.924867, , , 272.0, 8.20, 276.1, 25.128, 1008.13, -0.3, 81.117, 275.7, , , , 34.5945, 25.7674, 1535.7866, 53.3127, 25.7064, 25.7674, 56.3, 3.2664, 1B
2009/03/15, 01:45:02, 1.499967, -102.927167, , , 266.0, 8.40, 275.8, 25.128, 1008.17, -0.3, 80.956, 275.2, , , , 34.5735, 25.7675, 1535.7643, 53.2840, 25.6839, 25.7675, 53.7, 3.6768, 1B
2009/03/15, 01:46:02, 1.499967, -102.929483, , , 268.0, 8.50, 275.9, 25.143, 1007.86, -0.3, 81.048, 275.1, , , , 34.5789, 25.7632, 1535.7600, 53.2870, 25.6857, 25.7632, 58.6, 3.5459, 1B
2009/03/15, 01:47:01, 1.499983, -102.931783, , , 275.0, 8.40, 275.6, 25.143, 1007.94, -0.3, 81.048, 275.6, , , , 34.5840, 25.7601, 1535.7595, 53.2913, 25.6870, 25.7601, 66.7, 3.1599, 1B
2009/03/15, 01:48:02, 1.499967, -102.934067, , , 262.0, 8.30, 275.9, 25.112, 1008.11, -0.3, 80.895, 274.8, , , , 34.5720, 25.7591, 1535.7429, 53.2732, 25.6710, 25.7591, 50.0, 3.6408, 1B
2009/03/15, 01:49:01, 1.499933, -102.936350, , , 267.0, 8.40, 275.5, 25.112, 1008.07, -0.3, 80.895, 274.5, , , , 34.5597, 25.7535, 1535.7198, 53.2521, 25.6523, 25.7535, 55.7, 3.3685, 1B
2009/03/15, 01:50:01, 1.499950, -102.938617, , , 267.0, 8.40, 276.2, 25.135, 1007.95, -0.3, 81.339, 276.0, , , , 34.5609, 25.7482, 1535.7081, 53.2480, 25.6484, 25.7482, 65.3, 3.3420, 1B
2009/03/15, 01:51:02, 1.499950, -102.940883, , , 274.0, 8.10, 276.1, 25.143, 1008.17, -0.3, 81.209, 274.9, , , , 34.5749, 25.7453, 1535.7134, 53.2629, 25.6563, 25.7453, 66.6, 3.0136, 1B
2009/03/15, 01:52:02, 1.499950, -102.943167, , , 277.0, 8.20, 276.3, 25.158, 1008.15, -0.3, 81.247, 276.2, , , , 34.5943, 25.7450, 1535.7335, 53.2892, 25.6764, 25.7450, 73.3, 3.0392, 1B
2009/03/15, 01:53:02, 1.499933, -102.945467, , , 270.0, 8.10, 275.6, 25.151, 1008.12, -0.3, 81.408, 275.9, , , , 34.5762, 25.7446, 1535.7132, 53.2639, 25.6612, 25.7446, 66.0, 3.0093, 1B
2009/03/15, 01:54:02, 1.499950, -102.947750, , , 268.0, 8.20, 275.8, 25.158, 1008.09, -0.3, 81.515, 277.0, , , , 34.5877, 25.7457, 1535.7281, 53.2809, 25.6775, 25.7457, 63.6, 3.2356, 1B
2009/03/15, 01:55:01, 1.499983, -102.950050, , , 270.0, 8.30, 275.1, 25.143, 1008.23, -0.3, 81.316, 275.2, , , , 34.5942, 25.7479, 1535.7393, 53.2916, 25.6886, 25.7479, 68.5, 3.1161, 1B
2009/03/15, 01:56:01, 1.499983, -102.952350, , , 272.0, 8.20, 275.2, 25.151, 1008.26, -0.3, 81.469, 275.0, , , , 34.5827, 25.7477, 1535.7265, 53.2756, 25.6688, 25.7477, 67.4, 3.1623, 1B
2009/03/15, 01:57:01, 1.499967, -102.954667, , , 269.0, 8.30, 274.9, 25.158, 1008.38, -0.3, 81.523, 274.8, , , , 34.5995, 25.7499, 1535.7496, 53.3014, 25.6972, 25.7499, 65.1, 3.2097, 1B
2009/03/15, 01:58:02, 1.499933, -102.957000, , , 267.0, 8.40, 275.6, 25.143, 1008.09, -0.2, 81.477, 275.4, , , , 34.5906, 25.7497, 1535.7406, 53.2889, 25.6796, 25.7497, 62.9, 3.1406, 1B
2009/03/15, 01:59:02, 1.499933, -102.959333, , , 270.0, 8.30, 276.0, 25.135, 1008.33, -0.2, 81.194, 275.0, , , , 34.5695, 25.7455, 1535.7081, 53.2557, 25.6528, 25.7455, 64.3, 3.0764, 1B
2009/03/15, 02:00:02, 1.499933, -102.961650, , , 272.0, 8.60, 275.5, 25.128, 1008.22, 0.0, 81.163, 274.7, , , , 34.5899, 25.7401, 1535.7172, 53.2780, 25.6746, 25.7401, 69.2, 3.0736, 1B
2009/03/15, 02:01:01, 1.499917, -102.963967, , , 273.0, 8.30, 275.9, 25.135, 1008.24, 0.0, 81.339, 275.5, , , , 34.5927, 25.7359, 1535.7113, 53.2780, 25.6812, 25.7359, 58.7, 3.2753, 1B
2009/03/15, 02:02:02, 1.499933, -102.966283, , , 277.0, 8.40, 276.3, 25.128, 1008.25, 0.1, 81.140, 276.6, , , , 34.5616, 25.7306, 1535.6645, 53.2295, 25.6344, 25.7306, 67.8, 3.0388, 1B
2009/03/15, 02:03:02, 1.499933, -102.968600, , , 277.0, 8.40, 276.0, 25.105, 1008.45, 0.1, 80.925, 275.4, , , , 34.5869, 25.7270, 1535.6831, 53.2603, 25.6525, 25.7270, 68.9, 3.0340, 1B
2009/03/15, 02:04:01, 1.499917, -102.970900, , , 269.0, 8.20, 277.0, 25.120, 1008.23, 0.0, 80.941, 276.6, , , , 34.5938, 25.7253, 1535.6869, 53.2683, 25.6606, 25.7253, 69.7, 2.8506, 1B
2009/03/15, 02:05:01, 1.499950, -102.973217, , , 266.0, 8.30, 275.8, 25.128, 1008.19, 0.1, 81.140, 276.3, , , , 34.5894, 25.7242, 1535.6782, 53.2605, 25.6573, 25.7242, 64.7, 2.9161, 1B